FW3054 Weather Reports


time (UTC)temp
C
wind
direction
speed
KPH
gust
KPH
rain 1hr
cm
rain 24hr
cm
rain mn
cm
humidity
%
barometer
mb
20260505212520 23 23 1.6 8.0 0.00 0.00 0.00 41 1013.6
20260505211520 23 158 1.6 3.2 0.00 0.00 0.00 42 1013.7
20260505210545 23 0.0 4.8 0.00 0.00 0.00 41 1013.9
20260505205520 23 135 1.6 4.8 0.00 0.00 0.00 42 1014.1
20260505204520 22 158 1.6 8.0 0.00 0.00 0.00 44 1013.9
20260505203547 22 225 1.6 6.4 0.00 0.00 0.00 44 1014.0
20260505202548 22 135 1.6 8.0 0.00 0.00 0.00 43 1013.8
20260505201522 22 113 3.2 9.7 0.00 0.00 0.00 41 1013.9
20260505200546 22 135 1.6 4.8 0.00 0.00 0.00 41 1014.0
20260505195522 22 113 1.6 11.3 0.00 0.00 0.00 40 1014.0
20260505194522 22 203 3.2 8.0 0.00 0.00 0.00 41 1014.2
20260505193522 23 113 3.2 6.4 0.00 0.00 0.00 40 1014.2
20260505192522 23 135 1.6 8.0 0.00 0.00 0.00 40 1014.3
20260505191522 23 180 1.6 4.8 0.00 0.00 0.00 41 1014.6
20260505190522 23 248 1.6 8.0 0.00 0.00 0.00 42 1014.8
20260505185522 23 113 3.2 9.7 0.00 0.00 0.00 42 1014.9
20260505184522 24 113 3.2 6.4 0.00 0.00 0.00 40 1015.1
20260505183612 25 0.0 8.0 0.00 0.00 0.00 39 1015.3
20260505182522 25 0.0 3.2 0.00 0.00 0.00 38 1015.4
20260505181522 26 0.0 1.6 0.00 0.00 0.00 35 1015.6
20260505180547 26 113 1.6 4.8 0.00 0.00 0.00 36 1015.8
20260505175522 26 135 1.6 4.8 0.00 0.00 0.00 34 1016.3
20260505174522 26 135 1.6 3.2 0.00 0.00 0.00 35 1016.1
20260505173522 26 203 1.6 6.4 0.00 0.00 0.00 36 1016.7
20260505172547 25 135 1.6 4.8 0.00 0.00 0.00 37 1016.8
20260505171522 25 90 1.6 4.8 0.00 0.00 0.00 37 1016.9
20260505170522 23 135 1.6 3.2 0.00 0.00 0.00 40 1016.6
20260505165522 23 135 3.2 6.4 0.00 0.00 0.00 40 1016.6
20260505164522 23 113 3.2 6.4 0.00 0.00 0.00 40 1016.7
20260505163522 23 0.0 1.6 0.00 0.00 0.00 44 1016.7
20260505162522 23 23 1.6 3.2 0.00 0.00 0.00 41 1016.7
20260505161522 23 0 1.6 4.8 0.00 0.00 0.00 42 1017.0
20260505160522 23 0.0 1.6 0.00 0.00 0.00 43 1017.1
20260505152522 20 113 1.6 4.8 0.00 0.00 0.00 48 1017.7
20260505151522 20 0.0 3.2 0.00 0.00 0.00 48 1017.7
20260505150522 20 0.0 1.6 0.00 0.00 0.00 50 1017.8
20260505140521 15 0.0 1.6 0.00 0.00 0.00 71 1017.0
20260505124521 9 0.0 0.0 0.00 0.00 0.00 90 1016.6
20260505123521 8 0.0 0.0 0.00 0.00 0.00 89 1016.6
20260505122547 8 0.0 0.0 0.00 0.00 0.00 89 1016.8
20260505121546 8 0.0 0.0 0.00 0.00 0.00 90 1016.9
20260505120546 7 0.0 0.0 0.00 0.00 0.00 90 1016.8
20260505115521 7 0.0 0.0 0.00 0.00 0.00 90 1016.3
20260505114521 7 0.0 0.0 0.00 0.00 0.00 90 1016.2
20260505113521 7 0.0 0.0 0.00 0.00 0.00 90 1016.3
20260505112521 7 0.0 0.0 0.00 0.00 0.00 90 1016.2
20260505111521 7 0.0 0.0 0.00 0.00 0.00 90 1015.8
20260505110522 7 0.0 0.0 0.00 0.00 0.00 90 1015.8
20260505101521 7 0.0 0.0 0.00 0.00 0.00 89 1016.1
20260505100521 7 0.0 0.0 0.00 0.00 0.00 89 1016.3
20260505095521 7 0.0 0.0 0.00 0.00 0.00 88 1016.2
20260505094521 7 0.0 0.0 0.00 0.00 0.00 88 1016.1
20260505093521 7 0.0 0.0 0.00 0.00 0.00 88 1016.2
20260505092521 8 0.0 0.0 0.00 0.00 0.00 87 1016.1
20260505091521 8 0.0 0.0 0.00 0.00 0.00 87 1016.0
20260505090521 8 0.0 0.0 0.00 0.00 0.00 86 1016.4
20260505085611 8 0.0 0.0 0.00 0.00 0.00 86 1016.2
20260505084521 8 0.0 0.0 0.00 0.00 0.00 85 1016.2
20260505083546 9 0.0 0.0 0.00 0.00 0.00 85 1016.3
20260505082611 9 0.0 0.0 0.00 0.00 0.00 85 1016.4
20260505081521 9 0.0 0.0 0.00 0.00 0.00 84 1016.3
20260505080521 10 0.0 0.0 0.00 0.00 0.00 84 1016.3
20260505075521 10 0.0 0.0 0.00 0.00 0.00 84 1016.4
20260505074521 10 0.0 0.0 0.00 0.00 0.00 84 1016.1
20260505073521 10 0.0 0.0 0.00 0.00 0.00 82 1016.2
20260505072521 10 0.0 0.0 0.00 0.00 0.00 82 1016.2
20260505071521 10 0.0 0.0 0.00 0.00 0.00 81 1016.2
20260505070521 10 0.0 0.0 0.00 0.00 0.00 80 1016.1
20260505065521 11 0.0 0.0 0.00 0.00 0.00 79 1016.1
20260505064521 11 0.0 0.0 0.00 0.00 0.00 77 1016.4
20260505063521 11 0.0 0.0 0.00 0.00 0.00 76 1016.2
20260505062546 11 0.0 0.0 0.00 0.00 0.00 75 1016.4
20260505061521 12 0.0 0.0 0.00 0.00 0.00 74 1016.4
20260505060521 12 0.0 0.0 0.00 0.00 0.00 72 1016.2
20260505055521 12 0.0 0.0 0.00 0.00 0.00 71 1016.3
20260505054520 13 0.0 0.0 0.00 0.00 0.00 69 1016.5
20260505053521 13 0.0 0.0 0.00 0.00 0.00 68 1016.2
20260505052521 13 0.0 0.0 0.00 0.00 0.00 66 1016.6
20260505051521 14 0.0 0.0 0.00 0.00 0.00 64 1016.4
20260505050521 15 0.0 0.0 0.00 0.00 0.00 62 1016.4
20260505041521 16 0.0 3.2 0.00 0.00 0.00 58 1016.5
20260505040521 16 0.0 3.2 0.00 0.00 0.00 56 1016.3
20260505035521 16 0.0 1.6 0.00 0.00 0.00 57 1016.5
20260505034611 17 0.0 1.6 0.00 0.00 0.00 53 1016.3
20260505033546 17 0.0 1.6 0.00 0.00 0.00 53 1016.0
20260505032521 17 0.0 1.6 0.00 0.00 0.00 51 1016.2
20260505031521 17 0.0 0.0 0.00 0.00 0.00 51 1016.5
20260505030521 17 0.0 1.6 0.00 0.00 0.00 51 1016.4
20260505025521 17 0.0 1.6 0.00 0.00 0.00 51 1016.5
20260505024520 17 0.0 1.6 0.00 0.00 0.00 51 1016.5
20260505023521 17 0.0 1.6 0.00 0.00 0.00 51 1016.2
20260505022521 17 0.0 3.2 0.00 0.00 0.00 51 1016.2
20260505021611 17 0.0 1.6 0.00 0.00 0.00 52 1016.1
20260505020521 17 0.0 1.6 0.00 0.00 0.00 53 1015.7
20260505015521 17 0.0 1.6 0.00 0.00 0.00 55 1015.7
20260505014521 17 0.0 0.0 0.00 0.00 0.00 54 1015.6
20260505013520 17 0.0 1.6 0.00 0.00 0.00 55 1015.2
20260505012521 17 0.0 1.6 0.00 0.00 0.00 54 1014.9
20260505011521 18 0.0 1.6 0.00 0.00 0.00 53 1014.9
20260505010611 18 0.0 1.6 0.00 0.00 0.00 52 1014.7
20260505005520 18 0.0 1.6 0.00 0.00 0.00 52 1014.7
20260505004521 18 0.0 1.6 0.00 0.00 0.00 51 1014.5
20260505003521 19 0.0 0.0 0.00 0.00 0.00 50 1014.1
20260505002521 20 0.0 0.0 0.00 0.00 0.00 49 1014.0
20260505001520 20 0.0 1.6 0.00 0.00 0.00 47 1014.0
20260505000520 20 0.0 0.0 0.00 0.00 0.00 46 1013.8
20260504235521 21 0.0 1.6 0.00 0.00 0.00 44 1013.8
20260504234520 21 0.0 1.6 0.00 0.00 0.00 44 1013.6
20260504233520 21 0.0 4.8 0.00 0.00 0.00 44 1013.8
20260504232520 21 0.0 3.2 0.00 0.00 0.00 43 1013.7
20260504231520 21 0.0 6.4 0.00 0.00 0.00 43 1013.7
20260504230520 21 0.0 3.2 0.00 0.00 0.00 43 1013.6
20260504225520 21 0.0 4.8 0.00 0.00 0.00 42 1013.5
20260504224520 22 135 1.6 4.8 0.00 0.00 0.00 42 1013.6
20260504223520 22 135 1.6 6.4 0.00 0.00 0.00 41 1013.6
20260504222546 22 113 1.6 8.0 0.00 0.00 0.00 40 1013.7
20260504221520 22 338 1.6 3.2 0.00 0.00 0.00 39 1013.8
20260504220520 23 135 1.6 6.4 0.00 0.00 0.00 39 1013.8
20260504215520 23 135 1.6 4.8 0.00 0.00 0.00 39 1013.8
20260504214520 23 113 3.2 8.0 0.00 0.00 0.00 38 1013.8
20260504213521 23 135 1.6 6.4 0.00 0.00 0.00 36 1014.0